Location: Boursonne
(49.2024°N, 3.0468°E)
Time: 11:11:39
(UTC+00:00)

H-2A R/B - Pass Details

Date: 03 March 2021
Orbit: 732 x 837 km, 98.2° (Epoch: 10 April)

Event Time Altitude Azimuth Distance (km) Brightness Sun altitude
Rises 18:01:21 0° 155° (SSE) 3,369 5.1 -5.2°
Reaches altitude 10° 18:03:42 10° 153° (SSE) 2,444 4.4 -5.6°
Maximum altitude 18:09:06 68° 72° (ENE) 903 2.2 -6.5°
Drops below altitude 10° 18:14:31 10° 350° (N) 2,454 4.7 -7.4°
Sets 18:16:53 0° 348° (NNW) 3,384 5.5 -7.7°
